McCook, NE

12:23 PM CST on February 20, 2017 (GMT -0600)
McCook Municipal

Weather History for KMCK - December, 2011

Change the Weather History Date:

Thursday, December 15, 2011

  Actual Average Record
Temperature  
Mean Temperature 40 °F 28 °F  
Max Temperature 55 °F 41 °F 66 °F (2002)
Min Temperature 23 °F 15 °F -16 °F (1989)
Degree Days  
Heating Degree Days 25    
Moisture  
Dew Point 21 °F    
Average Humidity 58    
Maximum Humidity 78    
Minimum Humidity 28    
Precipitation  
Precipitation 0.00 in 0.02 in 0.50 in (1956)
Month to date precipitation 0.45 0.32  
Year to date precipitation 19.65 22.21  
Sea Level Pressure  
Sea Level Pressure 30.28 in    
Wind  
Wind Speed 9 mph (SW)    
Max Wind Speed 18 mph    
Max Gust Speed -    
Visibility 10 miles    
Events      
T = Trace of Precipitation, MM = Missing Value Source: NWS Daily Summary

Daily Weather History Graph

Daily Weather History Graph

Search for Another Location

Airport or City:

Trip Planner

Search our weather history database for the weather conditions in past years. The results will help you decide how hot, cold, wet, or windy it might be!

Date:

Astronomy

Dec. 15, 2011 Rise Set
Actual Time 7:57 AM CST 5:17 PM CST
Civil Twilight 7:26 AM CST 5:47 PM CST
Nautical Twilight 6:52 AM CST 6:22 PM CST
Astronomical Twilight 6:19 AM CST 6:55 PM CST
Moon 10:46 PM CST (12/15) 11:14 AM CST (12/15)
Length of Visible Light 10h 21m
Length of Day
9h 19m
Waning Gibbous, 74% of the Moon is Illuminated
Dec 15
Waning Gibbous
Dec 17
Last Quarter
Dec 24
New
Jan 1
First Quarter
Jan 9
Full

Hourly Weather History & Observations

Time (CST) Temp. Windchill Dew Point Humidity Pressure Visibility Wind Dir Wind Speed Gust Speed Precip Events Conditions
12:53 AM 36.0 °F 25.6 °F 27.0 °F 70% 30.11 in 10.0 mi NW 18.4 mph - N/A   Partly Cloudy
1:53 AM 34.0 °F 25.0 °F 27.0 °F 75% 30.14 in 10.0 mi NW 12.7 mph - N/A   Clear
2:53 AM 30.9 °F 20.7 °F 23.0 °F 72% 30.17 in 10.0 mi NW 13.8 mph - N/A   Clear
3:53 AM 28.9 °F 19.2 °F 23.0 °F 78% 30.18 in 10.0 mi NW 11.5 mph - N/A   Clear
4:53 AM 42.1 °F 36.1 °F 19.9 °F 41% 30.18 in 10.0 mi NW 10.4 mph - N/A   Clear
5:53 AM 42.8 °F 39.3 °F 19.4 °F 39% 30.18 in 10.0 mi WSW 5.8 mph - N/A   Clear
6:53 AM 37.0 °F 33.3 °F 19.0 °F 48% 30.26 in 10.0 mi West 4.6 mph - N/A   Clear
7:53 AM 39.2 °F 35.0 °F 19.4 °F 45% 30.24 in 10.0 mi SW 5.8 mph - N/A   Clear
8:53 AM 43.0 °F 38.8 °F 19.0 °F 38% 30.31 in 10.0 mi SW 6.9 mph - N/A   Clear
9:53 AM 46.9 °F - 21.9 °F 37% 30.34 in 10.0 mi West 5.8 mph - N/A   Clear
10:53 AM 55.0 °F - 23.0 °F 29% 30.33 in 10.0 mi WSW 6.9 mph - N/A   Clear
11:53 AM 52.0 °F - 19.9 °F 28% 30.32 in 10.0 mi Calm Calm - N/A   Clear
12:53 PM - - - N/A% 30.28 in 10.0 mi Calm Calm - N/A   Clear
1:53 PM 37.0 °F - 19.9 °F 50% 30.32 in 10.0 mi Calm Calm - N/A   Clear
2:53 PM 36.0 °F 33.3 °F 21.9 °F 57% 30.32 in 10.0 mi South 3.5 mph - N/A   Clear
3:53 PM 36.0 °F 32.1 °F 23.0 °F 59% 30.33 in 10.0 mi SSE 4.6 mph - N/A   Clear
4:53 PM 35.1 °F 31.0 °F 23.0 °F 61% 30.31 in 10.0 mi SSE 4.6 mph - N/A   Clear
5:53 PM 33.1 °F 30.0 °F 21.9 °F 64% 30.32 in 10.0 mi SE 3.5 mph - N/A   Clear
6:53 PM 26.1 °F 19.4 °F 19.9 °F 78% 30.35 in 10.0 mi East 5.8 mph - N/A   Clear
7:53 PM 26.1 °F 21.9 °F 19.0 °F 75% 30.36 in 10.0 mi East 3.5 mph - N/A   Clear
8:53 PM 25.0 °F 17.1 °F 18.0 °F 75% 30.36 in 10.0 mi ESE 6.9 mph - N/A   Clear
9:53 PM 27.0 °F 23.0 °F 18.0 °F 69% 30.36 in 10.0 mi SE 3.5 mph - N/A   Clear
10:53 PM 27.0 °F 21.6 °F 17.1 °F 66% 30.35 in 10.0 mi SE 4.6 mph - N/A   Clear
11:53 PM 23.0 °F - 16.0 °F 74% 30.38 in 10.0 mi Calm Calm - N/A   Clear